Wind_Speed
15 14 15 17 19 21 23 25 26 30 33 36 37 37 35 33 31 31 31 32 35 37 39 41 43 44 46 47 49 50 51 52 52 53 53 53 54 54 55 56 56 57 57 57
14 14 15 15 17 16 19 22 26 30 33 34 36 34 34 32 30 30 32 35 37 39 41 44 45 45 47 48 49 50 50 51 51 51 51 52 53 54 55 55 55 55 55 55
13 15 16 18 21 23 25 27 29 30 33 36 38 40 38 35 34 33 34 36 37 39 41 41 43 44 45 46 47 47 47 47 47 48 50 50 50 51 52 53 53 54 54 54
13 15 17 21 23 24 27 29 29 30 32 36 39 39 39 38 38 36 35 35 36 36 37 38 39 39 39 40 41 41 42 44 45 45 46 48 49 50 51 52 52 52 52 52
10 12 17 21 23 24 26 29 29 32 34 36 37 39 39 39 39 38 37 37 38 36 36 36 36 36 38 39 40 41 42 44 45 46 47 47 48 48 49 49 50 50 50 50
11 14 19 20 21 21 23 27 27 29 30 32 33 34 35 35 35 35 35 36 35 34 34 35 35 37 38 39 40 42 43 43 44 45 45 46 46 47 47 47 47 47 47 47
12 15 18 20 21 21 23 24 24 24 25 27 28 28 27 27 27 28 29 29 30 31 33 35 36 38 39 40 41 41 41 42 43 43 43 43 43 43 43 43 43 43 43 43
13 15 16 16 17 18 19 20 21 22 23 23 23 24 24 24 25 26 26 28 29 31 32 33 34 35 36 37 38 39 39 40 40 40 39 39 39 39 39 39 39 39 38 38
15 15 15 15 15 16 17 18 18 19 20 20 21 21 21 22 23 25 27 28 29 30 30 31 32 33 34 35 36 36 36 36 36 36 36 36 36 36 36 35 35 34 33 32
16 15 15 15 15 15 15 16 17 17 18 19 19 20 21 22 23 24 25 26 26 27 28 29 30 31 32 32 32 32 32 33 33 32 33 33 32 32 32 31 30 28 27 25
16 15 15 15 15 15 16 16 17 17 17 17 18 18 19 20 21 21 22 23 24 26 27 28 28 28 29 30 30 30 30 30 30 30 29 29 28 27 26 25 23 22 21 19
16 16 16 16 16 16 15 15 15 15 15 16 17 17 18 18 19 20 20 22 23 24 24 25 25 26 27 28 28 28 28 27 27 26 25 24 22 21 20 19 18 18 16 15
16 16 16 16 15 15 14 14 13 13 13 14 15 15 15 16 17 18 19 20 21 21 22 23 24 25 25 25 26 26 25 23 22 22 20 19 17 16 15 15 15 14 13 11
15 15 15 14 14 13 12 12 11 11 11 12 12 13 13 14 16 17 18 19 19 20 21 21 22 23 23 23 23 22 20 18 17 16 16 15 14 13 12 12 12 11 11 11
15 14 13 13 12 12 10 9 9 9 9 10 11 11 12 14 15 16 17 17 18 19 19 20 20 20 20 20 19 18 17 15 14 13 13 13 13 12 11 11 11 11 11 11
14 13 12 11 11 9 8 8 8 8 8 8 9 11 12 13 14 15 15 16 17 17 18 19 19 19 18 17 15 15 14 13 13 12 12 12 12 12 12 12 12 12 12 12
13 12 11 10 9 8 7 7 7 6 6 7 9 10 11 12 13 14 14 15 16 17 18 18 18 18 16 15 14 13 12 12 12 12 11 11 12 12 12 12 12 13 13 13
13 12 11 9 8 7 6 5 5 5 6 7 8 9 10 12 13 13 14 14 15 17 18 18 18 17 16 15 13 12 11 11 11 10 10 11 11 12 12 12 12 13 13 13
13 11 10 9 7 6 6 5 4 4 5 6 7 9 10 12 13 13 14 14 15 17 18 18 17 16 16 14 13 11 10 9 10 10 10 10 11 11 11 11 12 12 12 12
12 11 10 8 7 6 5 4 3 3 4 5 7 9 10 11 13 14 14 15 16 18 19 19 17 16 15 14 12 11 9 9 8 8 9 9 10 10 10 10 11 11 11 11
12 11 9 8 6 5 5 3 2 1 3 5 7 9 10 11 13 14 15 16 17 18 19 18 18 17 15 14 12 10 9 9 8 8 8 8 9 9 9 9 10 10 10 10
12 11 9 7 6 5 5 4 2 1 2 4 6 8 10 11 13 14 15 17 17 18 19 19 19 19 18 16 13 11 10 10 9 8 8 8 8 8 8 9 9 10 10 10
12 10 9 7 7 6 5 4 3 2 1 3 5 7 9 11 13 14 16 17 18 19 20 20 20 20 20 17 15 13 12 11 10 9 8 8 8 8 8 9 9 9 10 10
12 10 9 8 7 7 6 5 5 3 1 1 3 5 7 10 12 13 15 17 19 20 20 20 21 21 20 18 17 17 15 13 12 11 10 10 10 9 9 9 10 10 10 10
12 10 9 9 8 8 7 7 6 5 3 1 1 4 6 8 10 12 14 16 18 19 20 20 21 21 20 21 20 19 18 17 16 15 14 13 12 12 11 11 10 10 11 11
12 11 10 10 10 9 9 8 8 7 5 3 1 1 4 6 8 10 12 15 16 17 18 19 20 21 22 23 22 21 20 19 18 17 17 16 15 14 13 13 13 13 13 13
13 13 12 11 11 10 10 10 9 8 7 6 4 1 1 4 6 8 10 12 14 16 17 19 20 21 22 22 21 21 20 20 19 19 18 18 17 17 16 16 16 16 16 16
Wind_Direction
252 269 253 233 226 223 223 227 233 236 242 247 252 255 259 259 256 252 251 255 258 260 262 264 265 267 268 270 272 273 273 274 275 277 277 277 278 280 282 283 284 285 287 289
252 262 266 253 244 242 239 241 239 238 243 247 252 257 262 262 263 264 265 266 264 263 263 264 266 268 269 271 271 272 272 274 274 274 276 279 281 283 284 286 287 289 290 290
252 249 255 257 256 256 255 257 253 254 256 258 262 266 271 271 270 272 270 267 265 267 267 266 265 266 267 270 272 273 275 277 278 281 283 284 286 288 289 290 291 291 291 291
258 252 253 253 258 260 262 261 260 261 260 261 264 267 271 274 275 274 273 273 275 274 273 272 272 273 275 278 279 281 282 285 287 289 290 291 292 292 292 292 292 292 292 291
266 255 262 262 263 262 266 270 268 267 266 267 268 270 272 275 276 277 279 279 281 280 279 280 280 283 285 285 287 289 291 293 294 294 294 294 294 293 293 293 292 293 293 293
279 263 260 267 271 273 273 273 271 272 272 272 273 275 276 277 277 278 279 280 281 282 282 284 286 288 290 292 294 295 295 295 296 296 296 295 295 295 295 295 295 294 294 295
290 279 275 277 280 282 278 278 277 276 276 276 277 279 281 281 281 283 283 284 285 286 288 290 292 294 296 297 297 297 297 297 298 298 298 298 297 297 297 296 296 297 297 296
301 293 289 287 284 284 284 282 280 280 282 282 282 283 286 289 291 292 293 293 293 294 296 296 297 297 297 298 299 300 300 300 301 301 301 300 300 300 299 300 300 300 300 299
307 302 297 293 290 289 290 289 289 288 289 291 292 292 294 295 296 297 297 298 298 300 301 301 301 302 302 303 304 304 304 304 304 304 304 303 303 302 302 302 302 302 303 302
310 307 301 297 296 295 294 296 296 296 295 298 299 297 296 298 300 300 302 303 304 305 306 307 308 309 309 310 310 309 309 308 308 308 307 307 307 305 305 306 307 307 307 306
313 311 306 303 300 298 298 297 298 300 302 303 303 304 303 304 304 305 306 307 308 309 310 312 313 313 314 313 313 312 312 312 311 311 311 311 311 311 312 314 315 314 313 312
315 312 309 307 305 305 304 302 302 303 305 307 308 310 309 310 310 311 312 314 314 315 315 316 317 317 317 318 317 317 316 315 315 315 316 317 318 319 321 323 324 325 325 325
313 310 309 307 307 307 308 307 306 308 311 312 313 314 315 317 318 319 320 321 321 320 320 321 321 321 322 323 323 322 322 321 321 323 325 328 330 333 335 335 338 342 347 353
315 313 312 310 310 310 310 309 310 312 315 316 318 320 321 323 324 325 325 326 326 326 326 326 327 327 327 328 329 330 331 331 333 336 339 344 348 350 353 356 359 5 13 20
318 315 313 312 312 313 311 310 312 314 317 320 323 327 329 331 332 333 333 334 334 334 334 335 336 336 337 338 341 343 344 346 349 353 357 360 3 7 13 17 20 24 30 37
318 316 315 313 313 312 310 311 314 316 322 328 331 335 337 338 339 341 342 343 344 345 346 345 345 345 346 348 351 354 355 359 3 6 10 15 20 25 28 30 33 37 42 49
318 317 316 315 312 309 309 313 317 321 329 335 339 342 345 347 350 351 351 351 352 352 352 352 352 353 353 354 357 2 6 10 13 18 22 25 29 32 34 36 41 46 51 57
317 315 313 311 308 308 308 312 317 325 336 342 347 352 355 357 357 357 357 357 357 358 358 359 359 359 358 358 1 4 9 16 21 25 29 31 32 34 37 41 46 50 54 58
315 312 309 306 301 299 300 304 313 329 344 355 1 4 3 2 2 1 1 1 1 0 0 1 1 1 0 0 2 6 12 18 24 27 29 30 32 36 39 43 47 50 54 57
312 309 306 300 293 290 291 294 299 323 356 9 12 12 10 9 8 8 7 6 5 4 4 3 3 3 5 7 10 12 17 20 23 24 26 28 31 35 39 43 45 47 50 55
307 305 300 291 285 281 276 275 279 330 12 19 20 19 17 15 14 13 12 11 11 12 11 11 12 14 15 16 16 19 23 24 23 25 27 29 32 36 40 43 45 47 51 55
303 300 294 282 275 270 261 252 250 289 13 21 23 24 22 20 18 17 18 18 20 20 20 21 24 25 24 23 24 28 31 30 31 31 30 30 34 40 43 46 48 50 53 57
299 294 287 275 263 256 250 241 236 241 348 19 25 27 25 23 23 23 25 26 26 26 25 26 28 29 28 27 32 36 36 36 36 35 36 38 42 48 51 53 55 56 58 61
294 286 277 266 253 246 243 238 230 228 238 11 27 28 26 25 25 28 30 31 31 30 29 30 32 33 31 35 40 41 40 40 41 43 48 53 56 59 60 62 63 63 63 65
284 276 267 256 246 240 238 234 229 225 225 233 23 30 28 28 29 31 33 32 32 32 31 33 36 37 38 41 44 45 46 47 49 54 58 61 62 64 66 66 67 67 68 70
275 267 260 251 244 239 237 234 229 226 225 224 222 32 31 32 32 33 33 32 32 31 32 35 39 41 43 45 47 48 49 51 55 58 61 62 63 65 67 69 70 72 74 76
267 260 254 247 241 238 236 233 228 226 226 225 223 228 18 28 32 33 33 33 32 33 34 37 40 42 44 46 48 49 51 54 56 59 62 63 65 66 68 71 74 77 79 81
Height
5753 5753 5754 5756 5759 5760 5762 5764 5766 5766 5766 5766 5766 5765 5761 5759 5759 5761 5762 5764 5764 5764 5764 5763 5762 5761 5759 5758 5756 5754 5752 5749 5747 5744 5742 5739 5736 5732 5729 5725 5722 5718 5714 5710
5751 5751 5752 5754 5754 5754 5755 5755 5756 5757 5758 5757 5757 5755 5753 5752 5752 5752 5754 5754 5754 5754 5753 5752 5750 5749 5747 5745 5743 5741 5738 5736 5733 5730 5728 5725 5722 5718 5715 5711 5707 5704 5700 5696
5748 5748 5748 5750 5748 5749 5749 5748 5750 5751 5752 5750 5749 5748 5746 5745 5746 5745 5745 5745 5744 5743 5742 5740 5738 5736 5734 5733 5731 5728 5725 5722 5720 5717 5715 5712 5708 5705 5701 5697 5693 5689 5685 5681
5744 5745 5745 5745 5743 5743 5743 5742 5742 5743 5744 5742 5741 5741 5739 5739 5739 5738 5738 5737 5735 5734 5732 5730 5727 5725 5723 5721 5719 5716 5713 5711 5708 5705 5702 5699 5695 5691 5687 5683 5679 5675 5671 5667
5740 5740 5739 5738 5737 5737 5737 5735 5736 5736 5736 5735 5734 5733 5733 5732 5731 5731 5730 5728 5727 5725 5723 5721 5718 5716 5713 5711 5708 5706 5702 5699 5696 5693 5690 5686 5682 5678 5674 5669 5665 5661 5656 5652
5736 5735 5734 5733 5732 5732 5732 5730 5730 5729 5728 5728 5727 5726 5726 5725 5724 5722 5721 5720 5718 5716 5715 5712 5709 5707 5704 5701 5698 5695 5692 5688 5685 5681 5678 5673 5669 5665 5660 5656 5651 5647 5642 5638
5732 5731 5729 5729 5728 5728 5728 5726 5724 5723 5722 5721 5720 5720 5719 5717 5716 5715 5714 5712 5710 5708 5706 5703 5701 5698 5695 5692 5689 5685 5681 5677 5673 5669 5665 5661 5656 5652 5647 5643 5638 5634 5630 5625
5729 5727 5728 5725 5724 5723 5722 5719 5718 5718 5717 5716 5715 5714 5713 5711 5710 5709 5707 5705 5703 5700 5698 5695 5692 5689 5686 5683 5679 5675 5671 5666 5662 5658 5654 5649 5645 5640 5635 5631 5626 5622 5618 5613
5726 5726 5722 5720 5719 5718 5716 5715 5714 5713 5712 5712 5711 5709 5708 5706 5705 5703 5701 5699 5696 5694 5691 5688 5684 5681 5678 5674 5669 5665 5661 5656 5652 5648 5643 5639 5635 5630 5625 5621 5617 5612 5608 5604
5722 5720 5719 5717 5716 5714 5713 5712 5711 5709 5708 5707 5706 5704 5703 5701 5700 5698 5695 5693 5690 5687 5684 5681 5677 5673 5669 5665 5661 5656 5652 5648 5644 5639 5635 5630 5625 5621 5617 5612 5608 5604 5600 5597
5719 5717 5715 5714 5712 5711 5710 5708 5707 5705 5704 5703 5701 5700 5698 5696 5694 5692 5690 5687 5684 5681 5678 5674 5671 5667 5663 5659 5654 5650 5645 5641 5636 5632 5627 5623 5618 5614 5609 5605 5601 5598 5594 5591
5717 5715 5713 5711 5709 5707 5706 5705 5703 5702 5701 5699 5697 5696 5694 5692 5690 5688 5685 5682 5679 5676 5673 5669 5666 5662 5658 5653 5648 5644 5639 5634 5630 5626 5621 5617 5613 5609 5605 5601 5597 5594 5591 5588
5714 5712 5710 5708 5706 5704 5703 5702 5700 5699 5698 5696 5695 5693 5691 5689 5687 5684 5682 5679 5676 5672 5669 5665 5661 5657 5653 5648 5643 5638 5634 5629 5625 5621 5617 5613 5610 5606 5603 5599 5595 5592 5589 5586
5711 5709 5707 5705 5704 5702 5701 5699 5698 5697 5696 5694 5693 5691 5689 5687 5685 5682 5679 5676 5673 5669 5665 5661 5657 5653 5649 5644 5639 5635 5630 5626 5622 5619 5615 5612 5608 5605 5602 5599 5596 5593 5590 5588
5709 5706 5705 5703 5701 5700 5699 5698 5697 5696 5695 5693 5692 5690 5688 5685 5683 5680 5677 5674 5670 5667 5663 5658 5654 5650 5645 5641 5637 5632 5629 5625 5621 5618 5615 5612 5609 5606 5603 5600 5598 5595 5593 5591
5706 5704 5703 5701 5700 5699 5698 5697 5696 5695 5693 5692 5691 5689 5687 5684 5682 5679 5676 5672 5669 5665 5661 5657 5652 5648 5643 5639 5636 5632 5629 5625 5622 5619 5616 5613 5610 5608 5605 5603 5600 5598 5596 5595
5704 5702 5701 5700 5699 5698 5697 5696 5695 5694 5693 5691 5690 5688 5686 5683 5681 5678 5675 5672 5668 5664 5660 5656 5651 5647 5642 5639 5635 5632 5629 5626 5623 5620 5618 5615 5613 5611 5608 5606 5604 5602 5600 5598
5702 5701 5699 5698 5697 5697 5696 5695 5694 5693 5692 5691 5689 5688 5686 5683 5680 5678 5675 5671 5668 5664 5660 5655 5650 5646 5642 5638 5635 5632 5630 5627 5625 5622 5620 5618 5616 5614 5612 5609 5607 5606 5604 5603
5700 5699 5698 5697 5696 5696 5695 5695 5694 5693 5692 5691 5689 5688 5686 5683 5681 5678 5675 5671 5668 5664 5660 5655 5650 5646 5642 5638 5635 5632 5630 5628 5626 5624 5622 5621 5619 5617 5615 5613 5611 5610 5608 5607
5699 5697 5696 5696 5695 5695 5695 5694 5694 5693 5692 5691 5690 5688 5686 5684 5681 5678 5675 5672 5668 5664 5659 5655 5650 5646 5642 5638 5635 5633 5631 5629 5628 5626 5624 5623 5621 5619 5618 5616 5615 5613 5612 5610
5697 5696 5695 5694 5694 5694 5694 5694 5694 5693 5692 5691 5690 5689 5687 5685 5682 5680 5676 5673 5669 5665 5660 5656 5651 5647 5642 5639 5636 5634 5632 5630 5628 5627 5626 5625 5623 5622 5620 5619 5617 5616 5615 5614
5694 5694 5693 5693 5693 5693 5693 5694 5694 5693 5693 5692 5691 5690 5688 5686 5684 5681 5678 5674 5671 5667 5662 5658 5653 5648 5644 5641 5638 5635 5633 5631 5630 5628 5627 5626 5625 5624 5623 5621 5620 5619 5618 5617
5692 5692 5692 5692 5692 5692 5693 5693 5693 5693 5693 5693 5692 5691 5689 5688 5685 5683 5680 5677 5673 5669 5665 5660 5656 5651 5647 5644 5640 5638 5635 5633 5631 5630 5628 5627 5626 5626 5625 5624 5623 5622 5621 5620
5690 5690 5690 5690 5691 5691 5692 5692 5693 5693 5693 5693 5692 5692 5691 5689 5687 5685 5682 5679 5676 5672 5668 5664 5659 5655 5652 5648 5644 5641 5638 5636 5634 5632 5631 5630 5629 5628 5628 5627 5626 5625 5624 5623
5688 5688 5688 5689 5689 5690 5691 5691 5692 5693 5693 5693 5693 5692 5692 5690 5689 5687 5684 5682 5679 5676 5672 5668 5664 5660 5656 5652 5648 5645 5643 5640 5638 5636 5635 5633 5633 5632 5631 5630 5630 5629 5628 5627
5685 5685 5686 5687 5688 5689 5689 5690 5691 5692 5693 5693 5693 5693 5693 5692 5690 5689 5687 5684 5682 5679 5676 5672 5668 5664 5660 5657 5654 5651 5648 5646 5644 5642 5640 5639 5637 5636 5635 5634 5634 5633 5632 5631
5682 5682 5683 5684 5685 5686 5688 5689 5690 5691 5692 5693 5693 5693 5693 5693 5692 5690 5689 5687 5685 5682 5679 5676 5672 5669 5666 5663 5660 5657 5655 5652 5650 5648 5646 5645 5643 5642 5640 5639 5638 5638 5637 5636